Home > Weather > Gunsan > Past weeks

Flag for South Korea Past Weather in Gunsan, South Korea — Yesterday and Last 2 Weeks

Now
85 °F

Sunny.


Feels Like: 98 °F
Forecast: 75 / 89 °F
Wind: 8 mph from West

Location: Kunsan Ab

Current Time: Jul 30, 2016 at 8:10:39 PM

Latest Report: Jul 30, 2016 at 6:58 PM


Visibility: 5 mi

Pressure: 29.84 "Hg

Humidity: 81%

Dew Point: 79 °F

Location of GunsanLocation

Past Weather in Gunsan — Graph

°F

Gunsan Temperature Yesterday

Maximum temperature yesterday: 92 °F (at 2:58 PM)
Minimum temperature yesterday: 80 °F (at 12:58 AM)
Average temperature yesterday: 87 °F

High & Low Weather Summary for the Past Weeks

 TemperatureHumidityPressure
High92 °F (Jul 29, 2:58 PM)100% (Jul 16, 8:02 AM)29.91 "Hg (Jul 16, 8:02 AM)
Low68 °F (Jul 18, 3:58 AM)55% (Jul 21, 3:58 PM)29.46 "Hg (Jul 16, 5:03 AM)
Average81 °F81%29.78 "Hg
* Reported Jul 15 6:58 PM — Jul 30 6:58 PM, Gunsan, Weather by CustomWeather, © 2016

Note: Actual official high and low records may vary slightly from our data, if they occured in-between our weather recording intervals... More about our weather records

Advertising

Gunsan Weather History for the Previous 24 Hours

Scroll right to see more
 ConditionsComfort  
Time TempWeatherWind HumidityBarometerVisibility
6:58 PM
Sat, Jul 30
85 °FSunny.8 mph81%29.84 "Hg5 mi
5:58 PM87 °FSunny.8 mph75%29.83 "Hg6 mi
4:58 PM88 °FSunny.8 mph72%29.84 "Hg5 mi
3:58 PM90 °FSunny.9 mph69%29.85 "Hg5 mi
2:58 PM89 °FSunny.10 mph70%29.86 "Hg7 mi
1:58 PM89 °FSunny.6 mph69%29.88 "Hg8 mi
12:58 PM90 °FHaze.7 mph69%29.89 "Hg6 mi
11:58 AM88 °FPassing clouds.7 mph73%29.91 "Hg7 mi
10:58 AM88 °FSunny.7 mph73%29.91 "Hg7 mi
9:58 AM87 °FPassing clouds.5 mph74%29.91 "Hg8 mi
8:58 AM86 °FSunny.3 mph78%29.90 "Hg9 mi
7:58 AM83 °FSunny.6 mph85%29.89 "Hg7 mi
7:03 AM81 °FFog.5 mph94%29.87 "Hg5 mi
6:59 AM81 °FFog.5 mph94%29.87 "Hg6 mi
6:58 AM81 °FFog.3 mph92%29.88 "Hg6 mi
5:58 AM81 °FFog.1 mph92%29.87 "Hg5 mi
4:58 AM82 °FPassing clouds.9 mph88%29.86 "Hg9 mi
3:58 AM83 °FPassing clouds.3 mph84%29.86 "Hg9 mi
3:03 AM82 °FPassing clouds.5 mph84%29.83 "Hg10 mi
2:58 AM82 °FPassing clouds.5 mph85%29.84 "Hg10 mi
1:58 AM83 °FPassing clouds.3 mph86%29.84 "Hg8 mi
12:58 AM83 °FClear.2 mph82%29.85 "Hg10 mi
12:00 AM84 °FClear.7 mph79%29.83 "Hg9 mi
11:58 PM
Fri, Jul 29
84 °FClear.7 mph84%29.84 "Hg9 mi
10:58 PM84 °FClear.10 mph86%29.83 "Hg10 mi
9:58 PM84 °FClear.10 mph86%29.83 "Hg10 mi
8:58 PM84 °FClear.10 mph84%29.81 "Hg10 mi
Weather by CustomWeather, © 2016

See weather overviewHow to use our weather pages